Theta_e
308 308 308 308 308 308 308 308 308 309 309 309 310 310 311 311 312 312 313 313 314 314 314 314 315 315 316 316 316 314 312 305 302 300 299 302 308 314 318 321 322 325 326 317 310 305 303 301 299 302 302 302 300 299 302 303 303 300 294 290 290 291 290 293 294 293 293 295 296 297 299 298 297 301 301 304 302 303 304 313 326 333 334 340 341 343 342 340
309 309 309 309 308 308 307 307 307 308 308 309 309 309 310 310 310 311 312 312 313 314 314 314 314 314 315 315 315 315 308 303 299 299 299 308 313 317 318 320 321 323 323 307 305 304 301 299 298 301 299 298 303 299 304 300 305 297 292 292 290 292 294 296 297 296 296 295 298 299 301 299 298 299 300 300 299 300 307 323 331 332 336 340 341 341 339 338
310 310 310 310 309 309 308 308 308 307 307 308 308 308 309 309 310 310 311 311 312 313 313 314 314 314 314 314 314 313 305 300 299 296 301 319 320 318 318 319 320 323 312 304 304 305 301 299 299 298 298 297 298 298 302 299 303 300 294 291 293 296 296 297 297 298 299 299 298 298 299 297 300 299 302 299 296 300 310 319 327 330 332 336 338 339 337 337
311 311 311 310 310 310 309 309 309 309 308 308 308 308 308 309 309 310 310 311 311 312 312 313 313 314 314 314 314 309 303 299 293 298 307 320 327 326 322 319 320 326 313 305 305 304 304 302 300 300 296 296 297 300 298 301 299 298 296 293 295 297 295 297 299 299 299 299 299 299 298 298 299 299 302 300 298 299 303 322 326 329 333 335 338 338 337 336
310 310 310 311 310 311 311 310 309 309 309 309 309 309 308 309 309 310 310 310 311 312 312 312 313 313 313 313 313 307 300 289 294 307 313 322 326 327 326 322 321 318 310 307 305 303 302 300 299 298 296 291 296 296 297 299 303 298 298 300 297 296 296 300 299 300 300 301 299 298 297 299 301 300 301 300 297 293 298 311 330 335 337 336 336 338 337 336
310 310 310 310 310 310 310 310 309 309 308 309 308 308 308 308 309 309 309 310 310 309 312 312 312 312 313 313 310 305 297 281 299 301 317 317 322 325 328 325 323 313 309 305 303 302 300 298 297 293 293 293 293 293 296 299 302 295 298 298 299 298 296 300 301 301 301 300 300 298 299 301 299 300 299 298 297 298 300 317 335 337 339 339 339 338 336 335
309 309 309 309 309 309 309 309 309 309 309 309 308 309 308 308 308 309 309 309 308 309 309 311 312 313 312 312 308 302 295 295 302 305 315 317 316 316 324 325 323 313 307 303 302 300 298 297 295 293 294 294 294 294 297 298 300 297 295 297 298 299 299 300 300 301 301 299 300 300 300 298 298 296 300 299 299 300 301 331 337 339 340 340 337 338 336 335
309 309 309 309 308 308 308 309 309 309 308 308 308 308 309 308 308 308 308 308 308 308 308 309 311 312 311 306 301 296 295 294 302 307 314 316 311 310 311 313 316 312 307 303 301 299 298 296 294 296 293 292 294 295 297 296 298 295 295 297 298 298 299 301 302 301 301 300 300 299 298 299 299 299 300 299 299 301 307 330 337 339 339 338 337 337 336 334
308 308 309 308 308 308 308 308 308 308 308 308 308 308 308 308 308 307 307 307 307 307 308 309 309 310 311 305 298 293 292 302 306 308 308 308 307 306 306 304 312 308 306 305 303 301 298 296 296 297 291 294 298 295 296 294 292 297 296 298 298 299 300 299 300 301 302 303 302 298 298 299 299 299 299 299 300 301 322 333 337 337 337 336 336 337 335 334
308 308 309 308 308 308 308 307 307 308 308 308 308 308 308 308 307 307 307 307 307 307 308 308 308 308 306 301 298 288 298 306 308 308 308 307 306 305 304 305 305 307 305 304 304 302 298 298 298 299 298 296 297 295 296 295 293 298 297 298 298 299 299 300 299 301 302 302 301 299 298 299 300 299 295 299 299 304 330 333 336 336 335 336 336 336 335 333
309 309 308 308 308 308 308 307 307 307 307 307 307 307 307 307 307 307 306 307 307 307 307 307 308 306 300 301 292 288 305 304 306 307 307 306 304 303 302 304 305 303 303 304 303 304 304 303 303 302 298 294 296 294 295 295 298 299 297 297 297 298 299 300 299 299 301 300 301 299 298 298 299 299 297 298 301 308 321 331 333 334 334 335 335 335 334 332
309 309 309 309 309 308 308 308 308 307 307 307 307 307 307 307 307 307 306 306 307 306 307 307 307 303 301 297 293 293 306 305 306 306 306 305 303 304 305 305 305 304 302 299 300 305 304 304 304 301 292 298 292 296 295 298 297 296 297 294 295 296 296 298 297 299 299 298 299 299 296 296 297 296 298 301 300 307 303 327 331 332 333 334 334 332 329 328
308 308 309 309 309 309 308 308 307 307 307 307 307 306 306 306 306 306 306 306 306 306 306 307 306 302 297 288 293 302 305 306 306 306 306 306 305 306 306 306 305 305 304 301 299 302 304 303 302 298 301 298 295 290 295 298 296 297 295 293 293 293 292 297 299 299 298 299 300 298 289 291 295 297 299 300 301 302 304 301 313 330 333 333 331 329 327 327
308 308 308 308 308 308 308 307 308 308 307 307 307 306 306 306 306 306 306 306 306 307 307 306 304 300 296 289 297 303 305 305 306 303 303 305 302 302 304 305 305 305 305 302 302 302 302 301 301 300 302 298 295 300 297 296 297 289 293 294 288 286 287 294 297 298 296 300 298 299 289 288 293 295 298 299 300 299 299 317 320 328 330 328 329 327 326 326
308 308 308 308 308 308 308 308 307 307 307 307 307 306 305 305 306 306 306 306 306 307 307 306 302 296 290 290 300 303 308 306 300 300 302 301 300 299 301 303 303 304 304 303 302 303 303 302 300 296 294 301 300 296 292 291 291 291 288 286 287 287 287 293 297 298 295 298 299 296 290 291 292 295 298 299 300 298 303 319 322 324 327 328 328 327 325 325
308 308 308 308 308 308 308 308 307 307 306 306 306 305 306 306 306 306 306 305 306 306 305 299 298 294 289 285 292 307 301 296 298 304 305 303 301 298 302 301 303 303 303 301 303 303 302 301 295 295 296 298 295 291 288 286 287 289 286 286 286 285 285 290 295 297 299 298 297 297 289 291 293 295 297 300 300 301 314 318 321 323 325 326 326 325 324 325
308 308 308 307 307 307 307 307 307 307 306 306 305 305 305 305 306 305 305 306 304 304 301 295 297 298 283 296 302 294 293 298 302 302 302 305 303 302 301 300 299 300 301 301 301 300 299 296 298 296 297 293 292 290 284 283 282 283 286 283 286 286 285 286 291 296 297 297 294 295 293 291 291 295 298 302 300 311 314 319 321 323 324 325 324 324 324 324
308 308 308 307 307 307 307 307 307 307 306 306 304 304 302 305 306 305 304 304 303 302 300 301 296 291 286 295 288 291 298 298 300 301 303 304 305 303 301 299 299 299 298 296 298 295 297 292 294 287 292 292 291 288 284 281 283 281 283 283 284 287 288 289 289 291 295 297 295 294 291 292 294 294 295 298 301 311 315 319 320 322 324 324 323 323 324 324
307 307 307 307 307 307 307 307 307 306 306 305 305 305 304 305 302 300 298 298 294 290 285 285 288 277 277 287 294 295 297 300 301 300 299 301 304 304 302 302 299 296 292 291 291 294 294 291 293 287 286 289 289 289 286 287 288 286 286 285 286 285 285 286 292 295 296 293 293 293 291 292 294 295 295 302 304 309 315 319 320 322 323 323 322 323 323 323
307 307 307 307 307 306 306 306 306 306 305 302 299 297 294 289 288 289 295 295 290 290 290 291 291 290 290 291 291 296 300 301 295 298 300 302 303 300 299 299 296 296 292 286 289 291 294 286 284 285 287 290 292 291 290 290 290 289 289 288 287 287 288 290 292 295 295 293 292 293 293 292 294 296 295 308 308 313 316 317 319 320 321 321 322 322 323 324
307 307 307 307 306 306 306 306 307 306 305 302 297 293 285 286 283 282 289 290 293 294 292 292 292 290 289 293 295 295 292 294 297 296 298 303 303 299 294 295 292 288 289 291 288 294 293 285 285 288 291 292 292 292 290 289 290 289 287 287 286 288 287 290 291 294 296 293 289 292 293 292 294 295 301 311 311 313 314 316 318 319 319 321 321 320 322 324
307 307 307 306 307 306 306 306 306 306 306 300 295 290 292 293 296 298 293 285 291 293 293 293 294 292 296 295 297 297 295 290 292 295 300 301 299 293 293 292 289 286 289 290 289 287 286 284 288 290 293 293 292 292 291 290 288 289 287 286 285 286 290 292 293 294 295 294 290 290 290 292 294 294 306 310 309 313 316 318 318 318 317 318 319 319 321 320
307 306 307 306 307 307 306 306 306 305 299 294 292 293 293 298 300 301 297 290 287 293 291 291 289 290 291 295 296 298 290 288 287 293 295 299 296 295 293 289 288 288 289 289 284 284 282 286 289 292 293 292 291 290 291 290 289 287 286 285 283 286 288 284 290 293 295 293 289 290 290 291 294 301 302 306 309 313 317 319 319 319 318 318 319 319 320 320
306 306 306 306 306 305 305 305 305 300 295 296 295 294 299 301 300 300 293 284 283 288 290 291 291 290 289 288 295 293 290 290 291 290 299 296 293 296 292 290 287 287 286 288 287 285 284 288 293 292 292 291 290 289 289 288 286 288 287 286 286 287 287 287 288 293 295 294 294 291 290 288 289 298 303 308 313 314 314 315 315 316 319 320 320 320 320 320
306 307 306 306 306 306 306 305 297 295 297 296 295 300 301 301 301 300 290 285 283 284 292 290 292 291 292 298 297 291 292 292 292 295 298 296 294 293 290 293 289 285 287 288 288 286 287 291 293 291 291 291 290 288 289 289 285 287 289 288 288 289 289 290 291 290 288 286 291 290 282 282 286 296 300 308 310 310 312 313 314 315 316 318 317 318 319 321
306 306 306 307 306 305 306 296 294 297 295 292 296 299 301 301 303 300 290 279 274 281 290 283 293 287 297 290 293 292 293 286 295 296 298 297 299 294 293 289 290 284 287 288 287 287 288 292 291 290 290 290 289 289 289 290 286 284 286 290 290 290 290 290 289 289 281 281 288 293 285 278 285 296 303 307 308 308 310 312 314 314 315 316 317 318 318 319
306 306 306 306 306 305 298 292 299 297 292 294 298 300 300 301 303 297 279 274 269 285 283 289 287 289 295 292 292 293 278 282 294 296 296 299 294 298 289 286 289 291 292 292 286 284 291 290 290 290 289 288 288 287 290 289 286 284 290 290 291 290 290 290 289 287 283 288 291 291 290 283 282 291 305 308 307 308 309 310 312 313 314 316 317 317 318 320
306 306 305 306 306 304 298 299 297 294 293 297 300 300 300 300 300 295 279 266 266 290 283 288 290 298 293 295 294 288 288 293 286 291 296 298 297 293 290 287 287 287 290 289 279 288 290 288 289 288 288 288 287 289 290 290 287 287 291 291 290 290 290 290 288 286 286 286 282 286 290 284 282 289 307 308 305 305 307 309 311 313 315 316 316 317 318 319
306 305 306 306 306 306 303 298 297 294 298 299 300 300 301 299 293 281 275 265 283 285 301 285 303 293 293 296 290 290 289 292 285 291 296 297 298 294 286 289 289 289 291 290 283 287 291 291 291 291 289 286 290 291 292 291 287 290 292 292 292 291 291 290 287 286 286 284 280 285 288 284 280 296 304 306 304 304 306 309 312 313 315 316 316 317 319 319
305 305 306 306 304 300 296 298 296 300 301 300 299 299 299 292 282 274 269 265 287 276 290 292 291 286 292 288 287 289 286 289 292 293 294 291 293 295 293 295 290 288 288 290 287 289 292 296 296 293 289 291 291 292 293 291 291 292 293 291 290 289 288 289 287 285 284 278 282 287 289 287 279 290 303 302 303 306 308 309 311 314 315 316 317 318 319 319
305 305 306 306 299 301 299 293 297 301 301 301 301 299 294 285 274 269 265 274 282 282 290 288 285 292 286 285 283 288 287 288 289 290 288 292 289 291 291 288 292 287 286 286 286 289 290 292 292 293 296 295 294 291 294 294 292 291 289 288 285 285 286 285 284 286 278 275 281 287 288 289 281 283 299 308 310 310 310 309 311 312 314 316 316 318 319 319
304 305 306 304 304 304 295 292 298 302 301 301 300 293 286 272 277 269 270 290 274 282 282 283 288 287 286 288 286 286 284 287 289 288 286 286 285 284 286 281 285 278 279 280 281 287 285 288 292 293 299 294 291 289 290 292 291 289 287 287 282 276 279 276 280 277 275 276 282 287 288 284 287 284 299 307 309 310 312 313 312 313 315 316 317 319 320 320
304 305 306 305 305 299 300 301 302 301 301 300 295 289 280 274 267 275 275 280 274 283 282 288 285 286 286 285 283 286 290 283 289 288 289 288 285 285 288 287 288 283 276 282 281 281 282 288 290 291 293 296 293 286 285 285 289 288 286 283 281 276 275 272 275 275 277 282 286 286 288 284 283 288 294 307 309 312 313 314 315 315 315 316 317 319 320 321
304 305 300 303 303 302 303 303 303 301 298 297 288 283 279 272 270 283 279 280 279 288 287 285 286 286 286 281 284 289 284 288 287 286 287 284 285 282 285 288 288 286 286 282 278 280 275 278 285 289 286 294 293 291 289 286 287 288 288 286 282 280 278 272 275 274 276 276 284 288 285 279 283 285 295 307 311 313 315 315 315 315 317 318 319 320 321 321
304 302 301 302 304 305 304 305 303 304 298 292 286 281 273 273 277 276 277 281 284 286 284 288 284 284 283 284 287 289 289 283 287 286 285 284 281 282 283 285 288 288 287 279 283 281 281 281 285 293 292 294 291 294 293 289 287 289 289 288 282 284 281 279 277 276 279 280 280 283 280 284 287 292 299 303 311 312 313 313 315 316 318 319 319 320 321 321
301 298 301 298 300 301 303 304 302 299 294 288 281 277 274 277 275 281 280 288 286 282 283 286 285 281 280 282 288 286 292 285 285 284 284 285 285 283 287 287 287 289 284 278 282 279 283 280 288 292 292 293 293 294 293 293 281 286 288 284 286 289 288 280 279 284 279 279 277 279 285 287 292 296 299 304 307 310 312 313 314 315 317 318 318 319 321 321
296 298 295 298 301 302 303 303 302 296 293 287 280 274 280 281 285 284 287 285 286 286 283 277 279 279 277 279 283 286 287 288 285 283 280 286 282 286 286 288 291 290 290 286 284 285 279 278 287 289 288 293 296 295 294 295 291 287 284 286 291 291 290 283 275 278 277 274 275 282 280 284 284 282 297 304 306 308 311 312 314 315 317 317 318 319 321 321
295 295 299 300 302 303 303 302 299 294 290 285 278 281 286 281 288 287 290 288 288 287 283 279 280 282 277 280 280 285 287 284 283 284 280 284 279 289 287 287 291 291 291 292 285 286 287 280 285 290 291 292 295 294 291 294 295 291 288 292 288 279 281 281 279 275 274 275 274 278 281 283 283 287 299 301 304 307 310 312 313 314 316 316 317 319 322 322
294 293 289 298 302 303 301 301 297 292 287 281 280 279 285 285 289 288 290 289 289 286 282 283 280 282 281 279 283 286 286 282 286 281 279 281 278 287 288 290 288 292 292 292 287 286 290 281 283 290 291 292 292 291 283 287 292 292 292 291 291 285 278 279 281 280 280 273 275 276 280 277 287 287 302 303 306 309 311 312 313 315 316 317 318 320 321 320
292 287 287 300 302 302 302 300 294 289 285 279 282 282 288 285 288 291 293 291 287 286 284 283 285 281 283 283 284 281 286 287 285 282 282 282 281 289 288 292 289 291 292 293 290 292 284 287 279 286 291 291 284 288 285 286 286 286 286 284 287 290 289 287 287 282 280 274 273 272 276 280 285 294 299 305 307 311 312 312 314 315 317 318 319 321 321 320
295 290 290 301 303 303 301 297 290 285 283 286 287 285 287 285 289 290 292 293 291 293 287 285 285 282 283 282 282 287 284 285 286 282 283 282 283 279 289 291 292 290 293 292 290 290 284 285 281 283 284 285 284 289 289 289 290 287 284 281 283 284 283 281 277 285 284 280 276 276 274 277 287 305 302 304 310 313 314 314 314 316 317 318 319 322 321 319
291 284 287 302 303 303 296 287 287 289 286 284 283 287 285 293 288 288 291 293 292 290 293 288 288 286 285 284 285 284 286 286 286 285 285 281 286 285 289 293 293 293 290 287 288 292 290 289 284 281 282 284 288 292 293 292 291 288 289 286 286 284 283 277 277 279 284 282 285 281 277 279 290 303 305 303 309 314 315 316 315 316 317 318 320 322 321 321
290 288 298 300 303 301 294 286 289 287 285 288 293 291 293 289 287 289 288 292 289 292 290 288 287 286 288 286 288 288 290 286 288 285 286 286 286 289 292 292 294 293 293 288 292 292 302 286 284 285 287 288 291 292 292 293 292 290 291 288 287 285 286 283 280 280 281 282 282 280 279 278 291 304 308 304 310 314 316 316 316 316 317 319 320 320 320 320
291 291 292 300 303 301 290 282 282 284 286 290 290 289 293 290 286 287 287 290 289 288 287 288 290 291 287 291 289 286 290 281 290 289 286 289 286 292 292 292 294 291 291 288 288 295 286 287 285 280 279 282 285 285 287 290 291 286 285 287 286 286 288 287 286 285 282 281 284 280 276 280 293 307 309 303 308 311 313 315 316 315 316 318 318 319 320 320
291 292 292 294 301 296 287 289 286 284 285 285 286 285 287 289 290 291 290 289 293 291 289 288 290 292 290 292 289 290 291 289 285 291 291 291 290 294 293 293 294 291 294 296 303 298 289 286 283 279 276 274 275 277 278 281 284 285 288 287 288 288 287 286 282 280 279 282 285 281 277 285 295 306 307 303 308 310 312 314 316 317 316 317 318 319 319 319
288 281 288 288 291 291 291 293 289 287 284 284 283 286 289 286 291 294 293 291 294 293 293 292 292 292 290 290 288 289 290 293 289 288 290 290 293 295 293 293 294 293 298 302 309 297 289 291 287 281 279 277 278 283 286 286 286 283 286 287 288 288 288 287 282 279 279 280 282 283 291 292 299 304 306 305 308 309 309 311 313 313 315 317 319 319 319 319
288 282 283 282 288 289 285 286 286 287 284 287 282 287 286 288 290 291 297 287 294 291 291 291 288 290 289 290 287 288 290 291 293 292 292 293 295 297 297 294 294 296 302 302 303 295 291 287 288 286 286 286 288 291 289 289 285 285 286 287 288 288 288 286 281 281 283 283 279 285 293 296 298 306 308 306 306 307 308 310 311 312 315 317 318 318 315 318
282 286 289 290 284 282 283 284 287 285 287 288 286 290 287 287 288 285 291 293 293 293 288 291 292 292 291 290 290 283 288 288 289 285 292 294 293 295 291 293 293 298 303 296 298 294 290 284 288 291 290 292 290 290 290 289 287 287 288 287 288 289 288 286 283 285 287 283 280 290 294 296 301 308 309 307 307 309 310 311 311 314 316 318 318 317 317 317
289 288 288 293 284 286 286 286 287 287 286 288 288 289 286 287 286 289 289 288 289 287 292 284 287 289 291 292 290 286 288 284 283 289 290 291 291 291 288 290 294 296 295 294 295 295 290 285 289 290 289 291 290 291 291 289 288 288 288 288 288 288 288 287 288 289 289 286 287 296 293 298 303 306 309 310 312 312 312 314 314 316 317 317 317 317 316 317
285 284 284 289 288 286 287 287 287 286 284 289 285 286 287 287 286 288 291 290 286 287 293 287 288 290 291 292 290 285 288 289 289 285 291 291 290 292 290 291 288 293 294 293 295 294 289 285 293 290 286 287 290 292 291 289 288 287 288 288 288 287 287 288 289 290 291 294 293 293 295 295 300 306 309 312 314 315 315 314 315 317 318 317 317 316 317 317
292 294 292 285 283 285 288 287 286 285 284 287 284 287 287 288 287 290 289 294 291 289 291 289 291 291 292 291 289 288 293 294 293 293 295 294 287 294 291 292 297 291 291 291 293 294 292 286 289 285 281 282 289 291 290 290 288 287 286 287 287 286 286 286 286 288 289 291 291 292 290 293 300 307 312 313 313 314 313 315 316 317 318 317 317 316 316 316
295 296 295 289 282 288 284 287 287 286 283 287 287 287 287 287 290 291 287 294 296 295 295 293 293 291 288 288 287 290 294 295 296 297 297 298 299 297 298 297 297 294 289 291 293 289 287 282 281 280 280 280 286 290 290 289 286 283 280 285 288 287 288 289 290 291 291 293 290 289 292 299 307 310 311 311 311 312 314 315 315 317 317 317 316 316 316 316
Wind_Speed
14 14 15 15 15 15 15 15 15 15 15 15 15 16 16 15 15 15 15 15 15 15 15 16 17 17 17 17 19 20 17 11 14 12 12 19 9 16 17 12 11 8 9 3 3 2 5 4 4 2 2 2 3 3 3 3 3 3 6 7 11 9 10 7 10 7 4 5 6 5 8 9 11 8 4 2 1 2 2 3 2 4 2 10 12 21 21 20
15 15 14 15 14 14 15 15 15 16 16 16 16 16 16 16 16 16 16 16 16 16 16 15 16 16 17 17 17 18 14 12 15 14 18 13 11 19 16 15 14 10 5 2 4 4 3 4 4 2 2 2 2 3 6 3 5 8 4 7 15 9 10 5 7 4 4 7 6 7 11 6 10 7 3 7 3 3 3 3 2 10 11 13 20 20 21 20
16 16 16 15 14 14 14 14 15 15 15 16 16 16 16 16 16 16 16 16 16 16 16 16 16 16 16 16 16 15 11 14 11 12 12 6 15 17 18 17 11 10 8 4 4 5 5 3 3 3 3 3 3 6 5 5 6 9 5 11 15 6 5 7 4 7 9 6 6 9 9 5 8 5 3 4 4 1 4 4 3 10 13 17 17 19 19 19
16 17 17 17 17 17 16 15 14 15 15 15 15 15 16 16 16 16 16 17 17 17 16 17 16 15 15 15 14 9 9 10 7 7 2 6 10 10 14 15 11 7 3 3 1 1 2 4 3 1 2 5 3 5 6 6 5 3 7 11 8 6 5 6 9 10 8 6 7 9 5 6 6 5 1 3 5 2 3 4 8 10 16 18 20 20 18 18
16 17 17 16 17 17 18 17 16 15 15 15 15 15 15 15 15 15 15 16 17 17 17 17 17 15 14 13 12 6 9 5 3 0 1 7 12 6 8 15 16 7 4 0 2 3 3 3 1 2 2 2 4 4 7 5 6 2 14 12 4 3 8 10 8 10 7 9 8 7 6 11 4 5 1 5 4 5 6 8 6 15 17 20 19 17 16 16
16 17 17 18 17 17 17 18 18 18 17 16 17 16 16 16 15 15 15 15 16 17 18 18 18 16 14 11 7 5 1 4 2 4 6 18 15 9 3 12 15 7 3 4 4 2 3 3 3 1 2 3 6 10 4 10 6 11 10 7 8 5 5 5 11 9 9 9 12 9 8 2 5 8 5 7 5 4 3 9 13 17 20 22 21 18 16 17
16 16 17 17 18 18 18 18 18 18 17 17 18 17 17 17 16 15 15 16 16 16 17 18 18 17 14 9 6 5 4 12 11 8 14 20 24 17 14 3 6 3 4 5 6 5 5 5 4 4 1 4 6 7 8 7 10 10 11 5 8 7 12 6 5 11 13 13 14 9 3 5 2 5 1 1 3 6 4 9 16 17 15 17 19 19 20 18
15 15 15 15 16 16 17 18 18 18 19 18 18 18 18 18 17 17 15 17 16 17 17 17 18 18 15 8 8 7 9 13 22 12 16 23 20 13 13 8 1 2 3 8 7 9 4 6 7 2 5 6 2 6 7 10 12 14 12 8 7 6 6 8 12 11 10 11 8 5 7 12 7 5 1 3 4 5 3 5 11 14 15 15 18 16 13 14
16 16 16 15 16 16 16 17 17 18 19 19 18 19 19 18 18 19 19 17 17 16 17 17 17 17 14 8 9 12 16 18 15 18 22 16 10 12 12 8 1 4 4 6 7 8 6 5 5 7 4 7 11 7 5 9 12 12 9 7 7 10 8 6 9 14 16 11 7 5 9 11 8 5 3 5 6 1 5 7 15 15 15 16 16 18 16 16
17 17 16 17 16 17 16 17 18 17 18 19 19 19 20 20 19 19 19 19 17 16 16 17 16 17 11 5 8 15 3 8 10 11 8 9 13 14 15 8 8 7 3 5 6 7 10 6 8 7 7 8 4 7 4 9 5 1 9 11 12 12 10 9 10 13 15 13 9 7 10 12 9 7 7 4 5 2 9 9 12 15 15 14 14 14 13 17
18 18 17 17 17 16 17 17 18 18 18 19 19 19 20 19 20 20 20 19 18 17 16 15 15 13 9 7 11 17 0 8 3 7 12 15 18 14 13 11 8 9 9 7 9 10 10 9 4 2 4 6 3 5 8 3 3 11 5 7 14 13 12 11 10 11 10 10 13 7 11 10 10 5 9 5 4 4 11 9 11 13 14 12 14 13 7 6
18 18 19 18 18 17 17 18 18 19 19 19 20 21 21 21 21 20 20 19 18 18 16 15 15 6 8 11 13 16 6 9 14 13 14 16 15 14 14 11 10 10 10 10 6 9 11 11 8 5 5 3 10 5 11 7 9 7 8 11 9 10 15 16 15 10 6 7 6 8 8 13 8 7 6 8 4 2 7 10 14 13 11 13 11 9 9 8
19 19 17 17 17 18 18 18 19 20 20 20 20 21 21 22 22 22 20 19 17 17 16 15 12 4 6 14 14 17 16 13 17 19 18 12 13 14 13 13 12 12 11 10 10 5 6 9 9 10 12 7 4 5 4 6 5 5 7 5 7 10 11 13 11 11 10 6 7 7 8 10 10 7 7 7 7 5 3 8 5 6 9 10 12 10 9 8
18 19 18 17 17 17 18 19 19 19 20 21 21 22 23 22 23 22 21 19 19 18 16 15 6 4 6 13 9 9 11 9 14 16 19 16 12 16 14 12 10 10 8 10 10 6 7 4 4 7 7 9 5 4 9 5 2 6 1 3 8 5 7 5 7 11 14 8 7 8 10 7 8 7 6 4 8 7 5 7 8 10 12 12 11 11 9 7
19 19 19 19 17 18 18 20 19 20 20 21 22 22 23 24 23 22 22 19 17 15 15 11 1 2 6 10 11 16 21 16 16 22 19 13 10 12 15 10 10 10 10 8 6 4 4 3 2 4 5 4 8 10 9 4 2 2 2 11 2 10 0 5 8 11 14 7 7 6 10 8 8 9 7 6 6 8 8 7 9 11 13 12 10 10 9 9
20 20 20 19 19 19 18 19 19 19 20 21 23 23 24 24 21 19 20 17 16 15 7 3 3 4 6 12 6 7 8 10 14 14 14 12 11 12 13 9 8 9 8 6 5 5 5 3 5 3 3 4 8 7 5 4 6 3 7 2 7 5 5 4 7 8 14 10 5 14 5 3 4 7 5 4 6 8 11 9 10 13 14 13 12 10 11 11
19 19 19 20 20 19 19 19 20 20 20 19 21 21 23 23 22 19 17 17 9 6 3 2 2 4 4 4 6 12 8 8 9 9 9 9 13 13 12 8 7 7 7 8 7 4 4 3 2 4 4 7 4 4 6 9 7 5 2 6 3 6 4 7 2 6 10 14 10 6 9 5 1 4 6 3 5 12 10 11 12 13 13 14 13 12 12 10
19 19 19 18 18 19 19 19 20 21 20 20 18 18 21 24 24 18 11 7 3 3 4 5 3 5 11 8 8 12 4 6 3 6 10 7 14 13 11 7 6 7 5 7 4 6 3 3 3 4 3 8 8 9 11 15 10 4 3 4 5 3 8 6 7 4 6 13 16 9 5 5 6 4 3 5 6 13 12 14 14 13 14 13 13 13 14 14
19 19 19 19 18 19 19 19 21 21 20 19 15 19 24 22 8 1 1 2 2 0 1 2 4 5 7 2 9 8 6 7 13 13 14 8 8 11 10 7 3 3 3 3 3 7 3 3 3 5 12 12 13 12 11 1 3 7 5 4 3 6 5 7 7 4 9 7 13 13 8 5 7 7 3 2 10 10 11 9 10 13 15 14 14 14 14 15
19 20 19 20 19 19 19 19 20 21 21 12 8 9 6 6 3 1 1 1 3 6 9 9 11 10 12 18 13 8 12 13 12 8 9 4 9 10 9 7 5 3 4 6 3 8 4 8 11 13 10 10 10 10 6 6 7 3 5 5 8 7 4 2 3 5 5 2 8 10 7 5 8 9 5 4 6 9 12 12 12 12 12 14 15 16 17 17
20 20 20 20 19 20 19 20 20 20 20 9 5 5 3 4 4 4 8 9 9 12 13 14 13 13 12 12 15 10 11 12 7 14 12 8 7 14 8 8 7 8 8 4 5 2 7 8 13 7 8 9 9 7 6 7 10 9 5 5 7 7 8 3 4 4 6 6 3 5 7 8 9 9 4 4 12 11 13 13 13 13 11 13 16 15 14 11
20 20 20 20 20 21 20 18 20 19 20 3 0 2 3 4 5 3 2 7 6 8 11 16 14 16 14 18 19 9 9 11 22 19 13 6 11 12 6 11 12 12 5 6 5 5 11 15 8 7 6 5 5 8 8 9 9 10 8 6 4 7 3 4 6 4 4 4 8 3 6 8 12 5 6 9 11 12 16 19 18 16 12 9 9 11 12 8
20 20 21 21 20 20 18 18 18 19 4 2 1 2 4 3 4 1 2 7 13 12 14 15 16 18 18 16 13 4 10 10 13 17 9 3 12 11 12 11 12 10 8 11 12 10 9 11 10 6 6 6 5 6 11 10 9 7 7 7 8 2 6 7 6 5 8 4 2 5 6 6 9 2 11 5 3 8 13 17 19 17 17 14 16 18 16 13
21 22 22 21 22 22 19 19 18 6 1 3 4 3 4 2 2 5 3 5 8 14 8 13 14 14 17 15 4 13 12 9 9 17 10 5 8 7 9 13 11 10 13 15 14 10 7 4 9 7 8 8 10 6 10 11 11 9 8 6 4 5 3 4 5 6 10 5 2 1 4 5 5 4 3 1 5 9 6 3 4 6 10 14 13 11 15 20
22 22 22 23 22 22 17 18 5 2 7 8 3 3 4 2 2 4 3 4 4 8 4 7 6 8 13 3 4 5 10 11 15 13 4 3 7 10 6 7 7 13 13 12 10 9 9 6 13 11 12 11 9 10 12 11 9 9 9 8 5 4 8 10 4 2 1 6 5 7 2 5 4 9 9 5 5 6 4 11 13 12 9 9 12 16 12 11
23 22 22 21 22 20 17 7 1 4 9 7 2 2 4 1 1 2 2 2 7 4 3 6 4 2 3 5 7 8 6 10 10 11 9 9 7 4 4 8 7 14 13 11 10 5 6 5 15 15 12 12 12 10 8 10 11 8 7 8 7 8 7 9 2 1 2 4 6 8 10 5 2 7 6 5 8 8 3 9 13 10 9 10 12 11 12 14
24 24 23 22 22 20 7 3 3 5 6 3 1 6 6 4 1 2 2 2 3 1 6 2 0 1 3 2 9 8 4 8 9 12 11 10 8 5 8 7 6 3 7 4 3 9 9 13 13 14 13 14 13 13 11 10 9 10 2 7 10 10 10 11 3 3 4 3 7 5 11 9 4 8 3 4 11 8 7 9 10 9 8 11 12 12 13 12
24 25 25 24 22 16 4 4 5 5 5 6 6 6 6 5 0 2 1 3 3 4 2 5 3 3 0 2 12 11 7 2 2 7 14 8 5 7 5 9 9 11 11 9 14 3 10 10 13 16 15 13 15 11 6 9 9 3 6 6 6 7 9 7 4 4 3 1 9 6 4 6 6 2 5 8 8 5 10 13 13 12 12 12 12 11 10 6
26 27 27 23 22 19 6 2 2 5 3 3 6 5 3 3 2 1 1 3 0 2 3 4 3 3 5 3 12 11 12 1 2 2 7 6 11 3 3 4 5 10 10 11 4 4 8 11 14 15 13 13 9 9 10 8 8 6 7 4 6 4 3 3 5 4 3 3 9 10 5 7 2 2 8 3 4 11 11 14 15 16 16 15 13 12 9 4
28 29 28 24 15 4 1 0 5 7 6 6 5 3 3 2 2 1 2 4 3 3 4 3 5 6 6 6 5 10 11 8 4 4 3 5 5 8 7 5 4 5 11 10 5 7 8 8 6 10 13 10 10 11 12 9 6 3 7 7 8 4 4 2 3 3 1 6 9 10 10 8 4 7 11 12 9 13 11 6 6 6 6 9 10 9 7 7
29 29 25 20 5 4 2 4 6 7 7 4 1 2 1 2 1 1 2 2 0 3 1 2 3 2 5 4 4 7 12 10 7 6 3 4 4 8 3 4 3 3 2 7 10 11 6 11 9 6 10 9 10 10 11 10 8 6 6 9 5 6 2 1 2 1 6 7 8 10 10 11 11 4 5 11 12 18 17 17 18 17 17 16 11 8 8 8
28 27 24 13 4 3 3 4 4 1 3 2 0 3 1 1 0 1 4 1 5 0 3 4 5 3 5 4 5 6 7 5 8 4 5 5 6 8 9 6 8 8 7 8 11 7 9 11 8 6 9 14 11 10 9 11 10 9 5 8 10 3 3 5 2 7 8 7 6 7 6 3 14 6 16 18 12 12 17 18 20 21 18 14 10 10 9 8
26 25 25 10 4 3 5 8 5 3 0 1 2 1 0 1 4 3 4 2 3 1 2 1 8 10 9 8 6 6 6 8 4 8 8 5 5 6 6 6 1 3 5 4 5 5 5 4 8 10 7 12 12 12 9 11 13 12 10 8 10 7 6 6 3 1 2 5 6 5 6 7 3 6 9 20 16 17 19 17 19 20 20 17 13 11 10 10
26 24 9 5 5 8 6 6 6 4 1 1 1 1 1 2 4 4 4 2 6 1 6 5 11 12 7 5 4 6 7 10 6 5 7 4 8 6 8 9 8 7 1 6 6 8 6 8 11 13 9 12 14 13 11 7 11 12 4 7 7 4 3 4 3 7 8 6 7 4 5 3 6 6 9 19 19 17 19 14 8 4 6 8 9 9 11 12
27 16 6 5 4 6 8 6 4 4 3 3 1 2 3 4 2 3 3 2 2 4 6 6 10 6 3 4 5 6 4 3 9 5 7 7 8 7 8 9 12 4 3 7 5 2 11 5 3 10 2 13 13 11 8 6 6 8 5 6 5 11 6 3 7 5 4 4 4 2 5 6 8 2 2 11 15 10 6 9 13 13 13 13 12 12 12 12
15 7 4 3 2 2 5 5 4 4 3 1 1 3 4 2 3 0 2 3 5 4 9 13 4 1 3 1 3 1 4 4 7 3 4 7 8 9 7 3 7 11 4 6 4 4 5 4 4 11 7 16 14 12 9 10 9 7 8 12 9 5 4 1 1 0 4 4 5 1 1 3 5 3 8 3 8 7 9 10 11 12 13 14 12 11 11 12
8 7 4 1 2 3 5 4 4 4 3 2 3 4 3 4 6 4 3 3 7 4 4 7 4 6 4 5 3 4 2 6 5 8 4 6 5 11 8 5 7 8 10 3 2 4 8 5 6 9 11 11 15 12 8 12 7 6 10 6 4 5 4 4 4 1 1 4 5 1 4 2 3 3 2 3 11 8 11 11 12 12 14 15 13 12 12 12
8 5 5 3 5 6 6 6 6 3 3 1 4 9 2 4 3 7 3 8 9 4 3 0 1 3 2 5 2 5 5 3 5 7 4 9 3 9 9 6 10 10 9 10 0 3 3 4 5 8 11 9 11 12 7 8 10 9 7 6 7 7 10 2 1 1 4 5 2 1 1 1 4 3 3 5 10 9 10 11 12 12 12 12 11 11 9 11
4 2 4 2 1 5 5 8 4 3 1 4 4 7 3 7 5 6 4 6 7 7 3 0 1 0 0 1 2 4 3 2 3 2 5 6 3 9 13 7 8 13 10 8 6 3 2 3 2 5 12 8 5 9 11 9 2 3 9 10 6 6 4 3 6 3 7 3 2 5 2 2 4 3 12 12 11 13 13 13 16 18 17 14 14 13 13 12
5 2 2 2 2 6 9 5 2 1 2 4 3 5 3 8 8 9 4 6 2 2 1 1 1 1 2 4 3 3 4 3 1 4 4 4 6 3 13 10 5 10 12 9 7 1 4 1 3 4 6 8 6 7 9 8 9 6 4 2 3 1 2 4 2 4 5 4 4 3 1 3 3 3 6 12 14 15 19 18 15 15 14 15 16 15 13 13
3 1 3 1 2 4 4 2 1 4 5 4 7 9 8 5 5 5 8 9 6 4 4 2 0 2 1 3 3 2 3 2 2 2 2 5 7 0 8 10 9 5 8 8 8 5 1 1 3 2 3 9 3 1 6 8 9 6 5 3 5 7 5 2 5 0 3 4 3 4 4 6 7 1 2 8 12 16 16 19 16 13 14 15 14 14 14 14
4 4 2 1 2 2 3 2 3 3 3 6 5 3 6 5 5 6 6 6 8 3 3 2 4 3 3 4 5 3 3 4 2 0 2 4 6 5 3 12 8 5 4 6 8 6 6 1 2 5 6 6 4 7 6 8 5 5 7 4 6 4 6 5 2 3 2 0 4 5 3 4 3 1 1 7 8 14 15 14 14 13 14 12 12 13 13 14
4 4 8 10 4 3 0 5 6 3 4 5 8 11 10 7 4 4 5 4 2 1 2 2 3 2 4 4 3 4 4 3 3 2 3 1 4 13 7 7 7 9 7 2 5 6 6 1 1 1 3 0 1 1 6 7 5 2 0 3 5 4 6 6 3 5 5 1 1 1 3 4 4 5 3 7 11 9 12 15 14 12 11 13 13 13 13 12
5 4 5 4 2 4 1 4 7 8 9 10 9 11 9 5 2 4 3 5 2 2 1 2 2 6 4 3 5 4 4 2 3 2 4 2 3 8 17 5 13 5 7 5 3 3 3 3 6 3 4 2 2 4 1 1 2 2 3 2 3 3 5 4 5 0 2 3 6 8 6 2 4 7 5 8 9 7 7 6 14 15 12 13 12 12 11 12
5 3 4 4 3 2 1 3 7 8 9 12 12 15 8 1 5 7 4 4 3 2 2 2 5 3 5 3 5 7 8 7 2 4 2 3 5 7 12 8 15 6 10 6 6 1 2 2 2 6 9 11 10 11 10 8 8 2 2 3 3 6 5 3 6 1 3 1 4 4 3 7 6 7 5 9 14 8 5 9 8 14 18 15 13 13 13 14
2 5 3 3 2 1 1 2 3 5 8 10 14 8 5 5 2 5 5 6 3 2 4 5 5 7 7 5 3 3 3 4 7 4 4 4 4 6 5 10 13 10 10 8 6 2 1 1 3 3 7 8 4 2 2 7 3 4 2 3 2 3 7 5 6 4 4 3 3 5 6 3 1 5 4 1 14 14 10 8 12 9 9 14 15 14 14 14
2 2 4 7 6 2 4 3 4 6 8 9 5 6 9 10 7 4 1 2 2 4 4 2 3 5 4 4 2 3 3 8 3 3 4 6 5 5 11 11 10 14 13 4 10 1 1 1 1 6 4 7 6 1 3 5 4 3 3 3 1 1 5 5 5 6 5 4 3 3 2 6 4 1 1 6 6 7 6 7 8 9 12 14 13 13 13 12
3 1 2 1 4 7 11 7 10 10 13 10 5 5 9 13 13 8 2 3 4 2 3 2 1 6 7 7 5 2 6 4 2 2 7 1 10 12 4 10 9 10 10 6 5 1 3 4 5 1 2 1 2 2 5 4 5 6 6 5 5 0 2 5 3 3 4 4 7 4 3 3 4 5 3 4 7 12 15 10 5 9 11 12 14 15 15 15
2 2 3 4 5 6 6 12 13 11 13 10 4 6 12 12 14 9 5 5 1 3 1 4 9 10 9 8 5 3 2 5 5 3 2 7 8 7 5 5 1 9 7 1 3 1 3 3 4 2 1 1 3 4 2 8 4 4 5 6 5 4 3 3 2 6 6 3 7 10 4 4 2 3 6 7 10 12 10 10 8 9 12 13 15 15 16 15
4 4 4 3 4 8 9 8 7 8 8 9 7 8 8 11 13 15 10 6 6 3 1 4 9 11 10 8 3 1 3 3 3 2 2 3 10 2 3 1 2 6 7 6 2 0 4 2 2 2 1 1 5 3 2 5 8 4 2 3 3 4 3 3 1 2 6 5 4 2 9 3 1 3 5 7 12 10 13 15 14 10 11 14 15 15 14 14
4 2 3 6 8 4 5 5 7 8 6 5 7 8 10 11 12 12 13 8 3 6 6 10 8 10 6 4 5 6 7 7 7 9 9 4 4 2 3 4 6 3 6 5 1 2 3 2 3 3 2 2 3 3 3 2 4 5 5 5 2 4 2 2 2 4 3 4 9 4 2 2 1 2 6 9 13 16 16 14 13 11 12 13 14 15 15 14
4 4 3 3 4 5 6 7 8 6 3 5 7 12 8 13 13 13 9 2 1 4 7 8 8 4 8 6 8 5 6 5 8 8 9 8 9 9 6 9 7 2 3 2 0 0 1 2 2 2 5 1 4 1 5 2 3 1 4 4 2 2 1 0 0 2 5 10 11 8 8 7 9 9 10 8 12 13 14 14 12 12 12 13 14 15 14 14
Wind_Direction
348 347 349 346 345 343 339 338 335 332 331 334 334 334 334 336 334 334 332 330 327 323 316 310 306 305 310 314 320 327 336 325 314 308 295 256 225 229 241 240 267 266 256 230 232 269 293 303 282 257 245 138 236 208 212 209 215 151 203 211 238 217 211 183 200 179 187 192 227 236 234 232 258 277 268 344 350 277 106 78 339 23 35 143 117 132 131 134
343 344 342 341 341 339 338 336 334 332 331 330 331 330 332 333 330 328 329 329 328 324 322 317 311 308 307 312 320 327 336 315 303 290 257 243 195 227 230 235 248 269 242 202 199 214 255 290 264 242 203 209 200 227 150 246 179 200 201 198 230 202 223 161 210 207 215 232 240 251 253 244 248 262 255 230 201 245 47 17 37 75 86 107 126 130 134 138
340 338 338 335 333 332 333 333 330 328 330 328 327 328 328 328 328 325 324 325 325 325 323 321 317 313 311 313 318 337 329 314 306 278 271 270 239 239 227 227 239 244 193 202 199 199 204 249 341 353 227 220 229 221 177 240 181 223 184 218 229 203 213 211 186 221 217 230 241 246 258 255 264 245 204 178 228 288 147 139 39 113 128 135 135 132 138 140
338 336 334 334 332 327 327 326 324 324 324 325 325 325 326 325 325 325 325 326 323 324 323 321 320 318 313 316 327 329 329 300 283 245 266 305 306 251 219 213 217 212 245 298 313 289 312 323 334 31 289 215 246 216 212 211 197 202 210 226 225 204 212 222 214 225 234 221 242 251 275 281 282 251 332 179 134 251 221 213 158 164 146 144 147 142 145 147
338 333 333 330 329 328 326 326 322 321 319 319 318 319 321 321 321 321 324 323 325 323 323 322 321 320 318 315 328 342 315 332 259 174 326 8 340 318 196 194 193 193 198 280 350 282 269 270 4 332 209 254 224 229 234 228 214 301 226 229 232 160 215 226 216 228 236 248 244 255 269 262 282 304 213 150 166 234 207 217 175 148 151 147 150 147 144 150
343 341 339 336 334 330 327 325 326 323 320 317 315 314 314 315 316 315 317 318 319 319 320 321 321 321 318 323 320 306 347 228 341 318 46 2 354 328 231 193 192 185 169 217 222 256 252 266 176 203 220 191 217 211 215 223 191 234 248 240 221 219 209 210 223 233 232 241 251 248 246 266 239 258 224 165 179 240 222 178 159 152 159 161 150 143 151 157
342 340 339 336 334 333 330 327 325 322 320 317 316 314 312 312 308 310 311 314 315 317 315 317 318 320 321 315 280 261 249 269 315 239 345 349 343 358 348 261 191 156 171 200 211 212 214 233 177 215 226 217 260 225 232 229 226 238 241 232 237 219 234 235 228 223 231 233 241 245 329 283 324 286 287 314 245 231 206 165 164 161 148 142 149 157 158 162
337 335 335 334 331 329 330 328 326 324 321 318 315 314 312 309 308 305 308 308 314 312 316 312 315 317 326 306 291 253 225 242 250 277 331 326 321 345 353 329 277 149 178 208 200 216 208 218 208 182 225 196 208 195 218 237 234 230 241 236 253 249 237 232 244 246 243 246 238 271 276 269 255 249 268 279 264 281 151 153 138 139 144 149 149 148 148 153
335 333 332 331 330 329 329 327 325 323 322 321 319 316 313 309 307 307 303 307 306 309 310 312 311 314 322 298 276 274 245 243 273 301 297 299 311 335 338 336 285 216 203 197 213 214 182 231 210 210 213 215 257 272 232 207 247 235 236 245 247 245 245 231 234 242 248 252 227 226 246 260 238 234 239 232 272 237 124 128 137 138 142 153 157 157 156 160
333 333 331 330 329 329 326 327 324 321 319 317 316 315 315 313 308 304 304 302 302 305 306 309 310 312 320 295 276 259 282 235 250 257 289 316 321 326 317 307 314 257 224 211 212 211 198 207 202 203 258 285 248 245 258 223 248 129 223 233 238 243 244 239 229 233 234 245 239 214 249 256 251 171 262 268 237 104 125 128 135 144 153 156 159 159 159 160
335 330 329 327 326 327 326 324 323 321 320 318 316 314 310 310 307 304 301 299 299 299 301 304 310 314 303 284 258 258 145 276 286 332 316 315 315 311 298 303 305 308 272 235 207 206 218 228 229 284 232 234 318 249 235 240 276 252 228 228 237 245 246 244 237 235 227 235 240 220 246 249 252 196 214 223 243 117 129 139 151 153 156 158 155 157 137 101
331 330 329 330 325 325 326 324 323 321 318 316 314 311 309 306 303 301 299 297 295 295 297 302 303 302 283 272 251 241 320 315 308 296 300 301 293 287 286 283 287 279 282 286 254 220 214 214 221 236 219 140 234 281 287 252 251 257 245 248 245 239 242 236 238 240 194 236 186 186 238 251 234 222 196 203 185 140 125 164 157 164 154 147 135 94 83 94
332 329 329 327 326 324 325 324 323 320 319 318 315 311 307 303 300 298 296 294 292 291 291 295 303 271 288 277 248 258 263 270 277 282 280 269 273 272 272 275 275 268 263 269 269 270 236 219 209 233 247 264 269 202 287 302 271 253 236 225 258 250 247 240 239 233 232 229 196 132 248 241 239 230 205 195 174 129 117 103 161 142 130 117 118 118 104 108
333 331 330 329 328 325 322 321 323 321 320 318 316 312 308 305 300 295 292 290 289 289 291 294 299 299 274 260 283 266 282 267 268 277 268 265 266 276 274 270 270 271 258 247 257 256 258 238 224 240 257 244 249 319 299 305 285 212 253 189 220 226 244 236 219 219 232 219 195 153 235 247 258 250 252 230 144 139 131 102 146 133 125 129 133 129 122 118
334 332 331 329 327 323 323 320 320 320 318 318 316 314 308 301 297 292 289 287 284 284 286 294 250 299 259 270 269 265 245 248 251 248 251 263 261 272 271 274 260 256 251 250 260 252 240 263 227 215 243 230 246 272 283 284 267 248 178 231 197 205 333 225 224 211 216 235 184 157 241 236 242 249 233 222 141 129 107 135 124 128 138 139 134 127 124 137
335 333 331 329 327 324 322 321 319 318 318 317 316 312 308 300 296 290 285 279 280 281 284 300 239 193 289 285 255 311 296 257 249 245 253 232 228 236 259 262 293 289 285 273 228 232 251 249 234 195 246 262 223 213 263 320 272 216 214 225 221 159 234 248 236 218 213 224 215 194 226 147 267 241 244 230 160 114 126 134 136 135 142 142 143 138 136 146
337 334 331 329 327 325 324 323 319 317 319 319 316 311 305 298 292 284 276 277 271 267 225 228 226 179 264 220 331 312 261 249 258 270 248 201 209 218 239 260 264 277 279 273 258 266 232 216 199 228 228 225 187 166 194 245 258 267 171 211 206 184 186 220 293 237 211 209 233 216 214 211 221 231 217 197 140 109 143 146 147 148 152 155 150 146 152 155
335 334 332 329 326 325 324 322 319 318 319 320 321 309 301 296 287 281 274 262 220 227 232 218 277 301 259 241 272 250 302 290 244 260 245 211 187 204 214 225 239 256 299 302 273 216 197 213 205 229 178 208 196 192 194 215 204 202 221 189 248 204 190 189 190 257 185 213 221 225 221 222 229 253 247 206 137 143 155 160 157 155 159 158 154 159 166 169
333 332 332 330 328 325 324 323 319 319 319 322 317 306 292 284 290 128 160 158 122 356 9 225 178 161 232 175 236 269 280 296 305 287 270 210 173 191 199 226 247 212 246 162 265 170 182 248 190 205 217 198 208 202 209 222 146 207 193 199 203 207 212 200 212 234 178 205 217 222 227 232 243 239 235 70 133 160 154 146 152 163 165 161 164 168 176 180
331 330 329 328 326 323 324 322 319 319 321 320 333 326 330 26 4 354 82 132 207 221 252 267 195 238 284 283 279 277 301 299 290 282 291 236 142 169 189 189 213 239 219 207 170 198 123 197 210 209 202 208 208 205 197 220 258 225 206 220 224 214 251 230 227 234 172 169 222 222 226 220 237 233 198 148 116 122 139 151 164 174 168 170 174 180 180 180
328 328 325 324 324 323 322 322 317 319 321 320 331 342 6 357 357 316 328 268 238 234 242 249 241 236 243 271 275 310 329 308 279 291 274 265 185 144 187 170 195 211 214 221 198 192 176 218 228 208 199 206 208 194 193 218 233 241 243 227 243 207 217 225 225 247 219 194 263 219 225 231 235 237 135 159 125 146 155 161 172 177 179 180 178 180 182 169
329 325 326 323 322 323 324 321 317 320 320 304 300 257 274 265 257 350 312 295 268 242 245 245 249 254 252 254 259 273 281 283 296 289 293 250 171 166 177 180 186 205 167 208 235 213 201 218 207 203 199 197 211 196 198 215 226 233 231 235 253 244 189 262 242 251 258 195 244 204 208 234 238 220 162 171 167 170 164 166 175 170 180 186 188 182 173 163
327 326 327 327 321 319 320 319 316 323 337 56 160 246 247 308 355 180 229 277 280 261 242 243 243 244 247 251 253 205 242 240 267 283 270 313 164 191 157 181 187 189 191 203 201 198 214 222 205 191 196 201 230 199 195 217 236 223 230 221 221 252 181 240 262 255 250 193 210 215 215 240 236 80 193 196 120 169 179 174 170 173 171 182 184 181 181 174
326 324 324 324 323 318 325 323 315 329 20 266 242 220 273 346 328 22 52 284 298 288 235 235 227 234 235 227 207 201 220 244 227 266 273 194 203 171 160 182 174 181 206 205 212 205 207 105 175 189 202 202 214 208 191 202 226 234 221 218 205 239 269 193 223 235 248 249 159 172 235 254 209 204 208 19 102 125 165 153 184 195 192 185 178 179 179 174
326 326 322 323 322 324 333 318 318 320 330 314 217 231 250 195 103 91 77 284 258 270 205 258 215 239 243 205 235 192 198 233 225 241 259 322 189 180 202 169 169 203 203 202 210 222 228 201 170 196 205 208 207 217 206 191 221 239 238 207 212 212 237 257 259 14 318 290 234 146 264 259 268 225 198 125 102 140 172 167 184 188 181 166 183 189 199 200
328 325 325 321 322 335 328 310 252 358 327 291 231 266 285 247 158 165 107 305 292 282 299 321 108 319 138 213 167 218 304 266 234 236 233 241 266 265 167 194 189 195 199 195 207 221 197 191 177 195 199 208 218 224 213 186 212 211 237 182 213 222 228 246 240 112 272 215 260 170 199 262 283 233 183 153 145 160 161 191 190 185 184 187 193 191 191 188
328 326 325 323 323 332 328 318 344 327 315 308 310 333 325 297 127 121 43 244 315 302 306 242 333 301 252 181 167 142 194 262 231 231 228 233 236 224 239 188 169 216 186 191 183 214 191 195 186 189 197 206 212 218 215 196 191 227 141 163 201 219 232 244 233 181 234 250 286 232 191 200 251 249 119 155 151 163 174 191 195 203 201 195 194 199 198 195
325 323 322 322 321 325 262 282 305 286 245 265 300 314 318 312 8 24 113 323 285 265 312 334 271 14 245 340 159 189 221 354 195 225 193 191 221 262 245 192 180 188 183 197 207 120 179 192 187 188 195 204 215 209 201 192 204 218 225 195 218 205 227 247 233 232 207 39 293 289 177 192 219 297 123 143 142 185 194 189 195 199 206 203 198 199 210 215
324 324 323 321 322 314 293 200 250 255 239 262 291 296 317 322 58 104 130 255 248 298 95 181 284 287 317 335 190 200 242 245 300 46 141 173 201 247 212 210 180 182 215 213 185 144 199 205 192 189 189 209 204 202 213 189 206 217 235 214 228 208 216 185 207 214 245 212 251 253 210 213 281 228 152 195 173 184 198 202 200 196 195 198 196 197 190 140
324 323 323 324 322 317 309 230 221 244 262 280 277 301 344 45 36 126 46 259 41 263 179 304 320 331 334 338 219 208 237 253 222 344 158 162 181 211 272 307 257 189 206 230 232 206 192 215 189 193 199 199 190 204 203 201 206 165 203 252 246 241 240 242 204 184 277 233 242 237 228 202 223 218 180 160 202 192 188 210 228 224 218 209 206 187 158 136
325 323 320 326 294 281 297 284 255 247 247 252 266 339 58 39 137 91 246 269 169 260 351 248 249 13 328 352 344 206 224 241 258 237 290 166 159 183 219 253 228 218 212 208 229 242 220 196 213 206 188 190 186 199 208 203 206 182 191 212 271 317 55 280 281 133 217 246 255 237 217 209 226 226 213 214 192 181 171 186 198 198 200 200 189 168 145 139
324 321 317 320 227 181 182 226 240 231 244 208 105 19 47 3 104 172 248 143 287 93 312 300 265 263 309 303 269 234 205 216 242 222 230 185 189 182 203 198 175 164 206 192 212 210 229 217 206 211 193 183 183 192 201 203 208 212 179 179 191 250 126 244 170 225 211 207 243 236 177 218 223 212 185 208 211 195 189 184 191 191 194 190 174 155 148 144
324 319 316 298 210 164 222 234 260 271 184 73 33 1 50 19 287 216 268 3 260 65 306 203 283 295 302 300 255 242 226 246 155 213 238 222 169 231 232 215 243 153 169 189 178 182 250 257 210 202 197 193 177 187 176 199 207 204 200 175 179 186 181 212 242 178 286 262 248 251 201 219 254 276 186 190 204 192 198 200 187 186 186 179 161 150 149 153
321 319 311 253 215 199 203 207 228 202 196 76 50 305 192 244 253 241 264 198 268 220 282 295 304 296 271 214 260 183 185 223 199 198 205 196 182 210 232 222 229 201 199 147 179 185 174 218 235 186 209 178 188 194 186 188 192 209 179 151 180 154 165 196 188 187 201 205 222 245 110 238 144 235 172 187 196 196 199 195 185 137 101 108 123 135 148 154
320 308 274 274 243 233 219 217 214 185 141 52 8 246 278 265 256 270 279 293 275 295 280 293 288 308 313 183 245 262 267 158 215 195 208 204 193 213 205 210 214 207 183 135 215 154 214 230 249 198 201 172 191 184 173 151 181 201 188 109 140 208 131 166 198 150 202 210 279 152 183 184 177 233 289 199 190 177 125 105 121 131 134 136 143 155 159 158
320 312 286 250 205 256 195 208 191 171 118 64 337 257 235 237 271 82 270 210 272 305 312 311 290 329 351 281 199 358 196 266 181 231 238 209 199 209 220 204 203 205 183 180 181 193 169 230 234 181 214 178 190 170 191 164 191 195 160 208 208 142 120 71 341 153 109 65 240 211 284 303 302 0 4 151 139 129 125 123 126 133 141 146 151 155 158 159
323 321 349 260 237 208 185 178 149 117 108 114 279 269 242 267 241 263 284 286 314 318 302 328 6 15 6 352 355 184 320 263 177 179 216 184 204 219 213 216 205 209 221 161 212 182 148 241 275 179 201 201 184 178 185 188 152 141 199 211 134 162 118 131 192 280 104 142 245 20 200 278 72 214 338 110 142 137 136 144 140 142 148 156 160 160 160 157
317 295 268 268 234 194 172 151 126 143 93 245 241 261 220 260 210 226 277 302 305 233 282 302 255 80 31 358 1 352 310 285 198 172 211 178 280 205 212 207 209 221 206 208 93 266 113 195 259 200 185 209 187 170 199 215 186 188 191 175 165 201 241 317 89 252 138 181 249 321 236 255 163 186 118 160 152 146 134 138 135 148 161 156 148 149 143 129
278 301 329 275 300 156 139 134 118 115 76 258 258 296 239 232 253 262 273 291 282 286 287 124 256 34 61 294 301 296 269 242 312 221 132 194 218 197 202 190 214 214 217 178 205 257 346 156 270 199 182 189 176 171 196 204 198 96 132 176 180 102 146 143 199 175 122 215 133 282 79 228 229 212 179 167 175 148 142 149 164 167 167 157 156 158 148 144
333 17 311 291 32 107 132 117 78 91 212 267 263 236 293 294 284 289 277 274 286 201 254 287 125 302 272 271 284 296 280 282 268 260 169 178 208 227 194 194 218 202 207 202 228 125 286 126 198 216 180 132 198 193 198 168 173 163 155 194 163 174 210 136 120 140 177 171 170 167 291 283 273 212 181 173 162 164 159 168 172 172 161 159 160 156 152 147
294 221 271 287 106 120 83 65 263 249 245 247 251 268 284 273 312 273 284 279 267 234 248 285 22 247 320 338 305 282 303 306 288 284 180 176 184 172 221 199 201 211 178 209 229 245 289 303 200 210 126 188 228 186 153 174 173 165 145 171 162 146 202 163 264 346 116 98 199 118 239 270 265 207 158 173 175 167 175 166 167 158 156 160 160 154 150 148
322 4 277 318 346 86 75 289 240 214 268 276 290 308 293 306 276 284 299 256 243 248 186 254 241 240 239 241 253 296 261 276 236 226 285 152 231 214 232 214 188 200 167 189 212 202 201 156 111 184 194 177 155 167 170 162 146 150 148 205 164 137 107 100 152 274 40 193 132 159 135 271 244 355 338 173 181 175 168 165 154 147 151 152 155 150 147 149
345 282 274 294 255 93 294 253 254 265 262 260 282 278 270 273 263 300 304 296 332 334 311 243 240 242 240 232 261 280 299 288 273 252 301 325 226 223 246 165 175 182 223 291 193 225 162 205 241 34 106 325 55 340 143 157 136 120 99 103 116 167 167 159 169 194 140 260 68 355 184 250 286 339 309 195 171 185 170 163 139 136 142 145 147 147 146 143
303 288 312 311 83 101 225 322 322 326 313 303 297 284 291 272 282 301 277 306 315 335 263 281 266 209 281 245 270 271 281 327 282 290 297 236 265 232 237 147 170 205 177 225 181 236 169 274 130 127 98 111 84 1 18 340 135 159 154 187 156 131 150 177 114 82 82 247 163 123 211 279 286 340 333 156 131 156 170 118 134 139 140 140 141 142 142 140
283 259 238 291 14 69 343 339 323 308 323 316 314 313 329 255 221 235 255 288 264 248 304 258 247 290 259 256 267 266 267 226 300 294 234 274 283 280 227 196 172 203 205 218 209 123 171 188 103 145 160 165 173 183 193 196 201 201 122 121 157 149 168 127 189 92 110 278 121 141 232 256 285 338 357 159 142 157 147 139 154 147 146 145 148 151 149 150
321 339 312 322 346 41 221 319 276 315 316 321 322 318 317 313 300 311 223 264 222 275 223 273 305 261 255 277 275 264 315 192 199 285 311 322 309 296 218 188 175 199 231 234 265 75 205 147 110 155 150 178 197 191 201 136 144 167 169 87 327 202 170 139 119 116 181 218 152 229 186 172 329 341 10 124 145 155 142 142 144 139 143 147 149 150 152 154
295 47 320 338 324 161 346 284 313 335 313 308 300 313 323 331 323 312 17 324 10 344 300 241 262 347 334 319 276 295 322 326 306 260 335 317 281 286 266 182 177 193 229 254 257 69 70 264 278 132 151 178 190 144 177 122 139 148 129 224 258 273 174 129 142 197 198 123 307 268 216 143 204 176 21 109 106 90 93 130 134 137 150 153 150 143 140 138
28 350 31 50 299 317 335 347 337 317 305 316 283 294 327 335 352 349 294 221 283 308 339 295 314 354 336 333 324 330 328 334 345 337 319 343 331 328 340 150 171 192 196 251 288 138 155 193 260 127 214 224 336 142 133 117 141 166 181 191 222 340 206 156 202 195 132 158 197 226 167 182 184 173 148 121 147 156 152 158 158 147 142 141 141 143 145 145
41 314 275 358 331 300 287 281 299 297 309 320 306 336 338 344 340 344 335 303 322 305 2 339 340 342 332 336 12 316 319 22 328 338 6 324 356 328 353 112 100 142 193 297 297 160 121 221 210 153 156 344 1 12 134 128 125 121 169 189 188 136 230 178 174 169 158 192 191 167 167 240 191 187 149 126 105 99 92 93 107 142 152 148 144 143 145 149
16 339 328 316 246 287 285 292 303 315 322 343 350 342 330 340 336 335 339 343 327 312 201 5 343 325 322 329 327 293 233 192 220 278 293 353 328 8 303 19 344 91 167 253 272 297 121 249 244 120 75 318 323 350 43 140 143 180 199 189 152 142 158 197 141 95 82 75 33 39 137 202 291 122 124 116 105 100 111 129 143 152 146 145 146 145 146 150
310 253 278 307 313 291 291 302 322 323 314 344 345 335 333 340 328 332 313 301 255 313 328 327 328 322 318 310 290 249 255 235 224 221 245 269 257 286 31 304 50 354 196 240 277 317 77 285 47 63 81 328 334 48 332 72 133 156 207 237 209 119 118 206 153 223 118 152 103 57 351 228 205 115 132 125 124 130 135 137 139 146 148 147 148 148 148 150
288 257 262 282 285 306 310 315 319 325 351 355 332 335 331 325 321 332 319 260 34 288 298 296 293 308 291 320 299 271 276 259 245 242 228 234 230 248 232 249 273 240 300 194 259 82 124 102 49 54 74 278 276 56 50 36 67 348 262 233 186 188 147 178 285 196 183 142 123 126 226 223 171 159 130 134 133 133 133 142 138 140 145 147 148 149 149 151